Location: Seven Kings
(51.5667°N, 0.1000°E)
Time: 03:19:48
(UTC+00:00)

Cosmos 1455 - Pass Details

Date: 29 October 2020
Orbit: 499 x 521 km, 82.5° (Epoch: 27 November)

Event Time Altitude Azimuth Distance (km) Brightness Sun altitude
Rises 17:53:01 0° 161° (SSE) 2,604 5.6 -12.3°
Reaches altitude 10° 17:55:20 10° 149° (SSE) 1,728 4.6 -12.6°
Maximum altitude 17:58:34 28° 90° (E) 998 3.0 -13.1°
Drops below altitude 10° 18:01:52 10° 31° (NNE) 1,753 4.5 -13.6°
Sets 18:04:13 0° 20° (NNE) 2,650 5.6 -14.0°
